FLOCK JB

Last updated on May 24, 2016, 9:36 a.m. UTC

1 41481U 98067JB  16145.11456698  .00015123  00000-0  22401-3 0  9999
2 41481  51.6397 178.0765 0001078 298.5380 164.5984 15.55476091  1030
UTC
Height (km)
Latitude
Longitude
Inclination
Orbital Period
UTC large
Height (km)
Speed (km/s)
/
Latitude / Longitude
Inclination (degrees)
Orbital Period (minutes)
Azimuth
Elevation
Range (km)
Doppler Factor
iOS Compass Heading
iOS Angle

Next 30 passes for location: Hong Kong

Rise time Rise Azimuth (degrees) Set time Set Azimuth (degrees) Duration Max altitude (degrees)

No matching passes for this satellites